Showing default

SJ-7, 28737

Orbit data source: Space-Track

SJ-7, 28737 is a payload satellite owned by CASC (CN) in SSO that was launched on Tue, 05 Jul 2005 UTC via a CHANG ZHENG 2D launch vehicle from the Jiuquan Satellite Launch Center, China (JSC). Payload-class satellites include a variety of spacecraft equipped with specific instruments for various scientific and technological missions. These include communications satellites like Starlink; space stations such as the ISS; scientific satellites like the Hubble; Earth observation satellites from companies like Planet Labs, Umbra, and HawkEye 360; GPS; miniature CubeSats for education and research; and military/defense satellites.

Loading next visibility...
Identifier
28737, 2005-024A
Orbit
SSO
Country
Flag of CNCN / PRC
Related business
Manufacturer
SAST
Mission
Operational Civil Technology
Bus & Motor
FY-1?, Unknown motor
Mass
~1,000 kg wet, ~1,000 kg dry
Launch date (UTC)
2005-07-05 (21 years ago)
Launch vehicle
CHANG ZHENG 2D
Launch site
Jiuquan Satellite Launch Center, China (JSC)
Object type
Payload
Rocket body
Debris
Shape & HBR
Box + 1 Pan, 1.0 m
Radar Cross Section
6.000 m², Large (>1 m²)

Expand to show TLE details & history
Last TLE update: 3 days ago

TLE from 3 days ago
0 SJ-7
1 28737U 05024A   26170.98423206  .00006450  00000-0  28830-3 0  9997
2 28737  97.7282 201.1631 0016072  28.7494 331.4624 15.21578108148451
Epoch: 2026-06-19T23:37Z
TLE epoch observation values (Epoch: 2026-06-19T23:37:17.649Z)
Latitude
-0°
Longitude
-61.36581°
Altitude
494.452 km
Speed
7.623 km/s
True Right ascension
13h 24m 39s
True Declination
0° 00' 00"
Sunlit
Object was in daylight at epoch
Visualization orbit readout
Latitude
Unknown
Longitude
Unknown
Altitude
Unknown
Speed
Unknown
Apparent Right ascension
Unknown
Apparent Declination
Unknown
Sunlit
N/A
Visualization observer readout
Local Sidereal Time
00:50:30
Azimuth
Unknown
Elevation
Unknown
Doppler factor
Unknown
Orbital elements
Apogee altitude
509.109 km
Perigee altitude
487.006 km
Semi-major axis
6,876.195 km
Eccentricity
0.00161
Inclination
97.7282°
RAAN
201.1631°
Arg. of periapsis
28.7494°
True anomaly
331.37426°
Mean anomaly
331.4624°
Eccentric anomaly
331.41835°
Mean motion
3.80646 °/min
Orbital period
94.58 mins
BSTAR
0.0002883
Loading maneuver chart data...
Computing Atmospheric mass density...
Loading historical data...
Loading historical data...
Loading historical data...
Loading historical data...
Loading historical data...
Loading historical data...
Loading historical data...

Documentation

Showing up to 5 results
|